Regional Weather Roundup
Issued by NWS

Home | Current Version | Previous Version | Graphics & Text | Print | Product List | Glossary On
Versions: 1 2 3 4 5 6 7 8 9 10 11 12 13 14 15 16 17 18 19 20 21 22 23 24 25 26 27 28 29 30 31 32 33 34 35 36 37 38 39 40 41 42 43 44 45 46 47 48 49 50
327
ASUS45 KBOU 301707
RWRCO

WEATHER ROUNDUP FOR COLORADO
NATIONAL WEATHER SERVICE DENVER/BOULDER CO
1100 AM MDT THU MAR 30 2017

NOTE: "FAIR" INDICATES FEW OR NO CLOUDS BELOW 12000 FEET WITH NO
SIGNIFICANT WEATHER AND/OR OBSTRUCTIONS TO VISIBILITY.

COZ001>005-013-030-031-301800-
...NORTHWEST COLORADO...

CITY           SKY/WX    TMP DP  RH WIND       PRES   REMARKS
CRAIG          CLOUDY    48  27  44 CALM      29.85F
HAYDEN         PTSUNNY   45  27  49 CALM      29.86F
MEEKER         CLOUDY    52  26  36 S13       29.85F
MOUNT WERNER   NOT AVBL
STEAMBOAT SPGS CLOUDY    41  30  64 CALM      29.86F
WALDEN         NOT AVBL
$$

COZ006>008-011-301800-
...WEST CENTRAL VALLEYS...

CITY           SKY/WX    TMP DP  RH WIND       PRES   REMARKS
GRAND JUNCTION PTSUNNY   52  30  43 E10       29.84F
MONTROSE       FAIR      51  26  37 CALM      29.90F
EAGLE          MOSUNNY   46  25  42 CALM      29.91F
RIFLE          FAIR      46  29  51 CALM      29.88F
DELTA          FAIR      54  30  39 CALM      29.88F
NUCLA          FAIR      52  23  32 CALM      29.93F
$$

COZ017>023-064>068-301800-
...SOUTHWEST COLORADO...

CITY           SKY/WX    TMP DP  RH WIND       PRES   REMARKS
DURANGO        FAIR      48  22  35 E8        29.96F
CORTEZ         FAIR      54  22  28 VRB5      29.93F
PAGOSA SPRINGS FAIR      46  22  39 SW6       29.99F
TELLURIDE      NOT AVBL
WOLF CREEK PAS FAIR      32  12  43 S9        30.11F WCI  24
$$

COZ009-010-012-014-032>034-037-058>063-301800-
...CENTRAL COLORADO...

CITY           SKY/WX    TMP DP  RH WIND       PRES   REMARKS
ASPEN          PTSUNNY   45  24  43 N5        29.90F
BUENA VISTA    FAIR      50  19  29 E5        29.89F
COPPER MTN     CLOUDY    34  25  69 W8        30.01S WCI  27
BERTHOUD PASS  CLOUDY    23  12  63 NW28G35   29.97F WCI   6
COTTONWOOD PAS FAIR      45  19  36 W6        29.95F
GUNNISON       FAIR      43  24  47 NE6       29.96F
KREMMLING      CLOUDY    50  28  43 SW5       29.91F
LEADVILLE      PTSUNNY   38  21  50 NW10G17   29.94F
MONARCH PASS   FAIR      28  19  69 W28G33    30.12F WCI  13
SALIDA         FAIR      54  20  27 S17G25    29.95F
SUNLIGHT       CLOUDY    32  21  64 SW9       30.02F WCI  24
WILKERSON PASS FAIR      36  19  51 W10G20    29.99F
$$

COZ069>075-301800-
...SAN LUIS VALLEY/SANGRE DE CRISTO MOUNTAINS...

CITY           SKY/WX    TMP DP  RH WIND       PRES   REMARKS
ALAMOSA        FAIR      47  24  40 VRB3      29.95F
LA VETA PASS   NOT AVBL
SAGUACHE       FAIR      46  21  36 S7        29.95F
$$

COZ035-036-038>040-301800-
...NORTHERN COLORADO FRONT RANGE...

CITY           SKY/WX    TMP DP  RH WIND       PRES   REMARKS
DENVER INTL AP PTSUNNY   59  28  30 NW5       29.77F
DMNS CITY PARK   N/A     59  25  27 E12       29.76F
AURORA         PTSUNNY   57  27  31 VRB3      29.79F
FRONT RANGE AP PTSUNNY   59  28  31 W6        29.79F
ERIE MUNI ARPT FAIR      53  38  57 CALM        N/A
BOULDER MUN AP FAIR      46  37  71 CALM      29.76F
CENTENNIAL     PTSUNNY   57  27  31 CALM      29.79F
BROOMFIELD     PTSUNNY   48  37  66 CALM      29.78F
FORT COLLINS   FAIR      49  39  68 CALM      29.78F
LONGMONT       FAIR      49  37  64 CALM      29.78F
$$

COZ041-046-047-076>085-087-088-301800-
...PIKES PEAK/PALMER DIVIDE AND SOUTHERN FOOTHILLS...

CITY           SKY/WX    TMP DP  RH WIND       PRES   REMARKS
COLO. SPRINGS  FAIR      56  21  25 S7        29.84F
A. F. ACADEMY  NOT AVBL
SCHRIEVER AFB  FAIR      56  23  27 SW10G18   29.84F
ELLICOTT       FAIR     N/A N/A N/A W8        29.82F
FALCON         FAIR      55  22  28 SW7       29.86F
FORT CARSON    FAIR      57  30  36 SE12      29.82F
LIMON          FAIR      55  31  39 NW6       29.81S
MONUMENT HILL  FAIR      52  25  35 SW5       29.85F
TRINIDAD       FAIR      54  34  46 VRB5      29.86F
$$

COZ042>045-048>051-090-091-301800-
...NORTHEAST COLORADO...

CITY           SKY/WX    TMP DP  RH WIND       PRES   REMARKS
GREELEY ARPT   FAIR      50  38  63 VRB3      29.78F
AKRON          FAIR      48  37  65 W5        29.78F
BURLINGTON     FAIR      48  40  73 NE3       29.80S
WRAY           NOT AVBL
STERLING       FAIR      50  41  71 S6        29.77F
HOLYOKE        CLOUDY    41  37  87 SE3       29.81S FOG
FORT MORGAN    FAIR      48  38  68 SW5       29.79S
$$

COZ086-089-092>099-301800-
...SOUTHEAST COLORADO...

CITY           SKY/WX    TMP DP  RH WIND       PRES   REMARKS
PUEBLO         FAIR      54  35  48 SE5       29.80F
LA JUNTA       FAIR      53  39  59 W7        29.81F
LAMAR          FAIR      52  38  58 VRB3      29.81R
SPRINGFIELD      N/A     55  40  56 SE9       29.81F
$$




USA.gov is the U.S. government's official web portal to all federal, state and local government web resources and services.